Location: Blankensee
(53.5126°N, 14.3055°E)
Time: 19:00:56
(UTC+00:00)

USA 215 - Pass Details

Date: 08 August 2020
Orbit: 1102 x 1106 km, 123.0° (Epoch: 08 August)

Event Time Altitude Azimuth Distance (km) Brightness Sun altitude
Rises 00:54:21 0° 60° (ENE) 3,929 7.1 -16.8°
Reaches altitude 10° 00:57:08 10° 70° (ENE) 2,968 6.2 -16.6°
Maximum altitude 01:03:00 34° 134° (SE) 1,727 4.2 -16.2°
Enters shadow 01:06:48 19° 185° (S) 2,329 4.4 -15.9°
